Location: Ferchesar
(52.6477°N, 12.4298°E)
Time: 03:14:28
(UTC+01:00)

Vanguard 1 - Pass Details

Date: 11 December 2021
Orbit: 652 x 3830 km, 34.2° (Epoch: 21 January)

Event Time Altitude Azimuth Distance (km) Brightness Sun altitude
Rises 21:14:33 0° 211° (SSW) 6,128 14.2 -46.4°
Reaches altitude 10° 21:18:46 10° 201° (SSW) 5,528 13.8 -47.0°
Enters shadow 21:22:25 18° 191° (S) 5,146 13.5 -47.5°
